Rbgn^[z[y[W
メイン
   新天体発見情報
     Comet P/2005 Y2 = 2019 E2 (McNaught)
投稿するにはまず登録を

フラット表示 前のトピック | 次のトピック
投稿者 スレッド
佐藤裕久
投稿日時: 2019-3-21 19:05
モデレータ
登録日: 2005-6-12
居住地: 日本
投稿: 2021
オンライン
Comet P/2005 Y2 = 2019 E2 (McNaught)

Comet P/2005 Y2 = 2019 E2 (McNaught)

E. Schwab (Egelsbach, ドイツ)の通報によると、3月10日UT、D. Abreuがスペインの
Tenerife にあるESA(欧州宇宙機関)の光学地上局の1.0-m f/4.4 反射望遠鏡で得た画像
からP/2005 Y2を検出した。合計600秒のスタックイメージでコマや尾はない。3月18日UT、
Schwabの要請を受けて、L. Belli と P. Breitenstein (Pascal-Gymnasium, Muenster, 
ドイツ)が、ハワイのHaleakalaにある2.0-m "Faulkes Telescope North" (FTN)による確認
観測を、L. KurtzeからSchwabに提出した。合計540秒のスタックイメージもコマや尾はなか
った。
ICQ's 2019 Comet Handbookの中野主一氏の予報に対して、Delta(T)は、+0.04 dayであった。

検出位置は次のとおり、

     2019 UT             R.A. (2000) Decl.       Mag.   Observer
     Mar. 10.13626   14 25 00.39   + 8 33 47.8   21.9   Abreu
          10.14379   14 25 00.32   + 8 33 49.6   22.2     "
          10.15133   14 25 00.23   + 8 33 51.2   21.8     "
          18.57539   14 23 05.10   + 9 07 09.4   21.5   Belli
          18.57765   14 23 05.05   + 9 07 10.1   21.4     "
          18.58444   14 23 04.90   + 9 07 12.2   22.0     "

連結軌道要素と位置推算表は次のとおり、

Orbital elements:
    P/2005 Y2 (McNaught)
Epoch 2004 Dec. 21.0 TT = JDT 2453360.5
T 2004 Dec. 27.93152 TT                                 MPCW
q   3.3547934            (2000.0)            P               Q
n   0.06254453     Peri.  194.57344     +0.31488110     +0.89085340
a   6.2855479      Node    94.62264     -0.83461959     +0.42417454
e   0.4662687      Incl.   19.17950     -0.45195137     -0.16265353
P  15.76
>From 146 observations 2003 May 30-2019 Mar. 18, mean residual 0".6.

    P/2005 Y2 (McNaught)
Epoch 2020 Nov. 7.0 TT = JDT 2459160.5
T 2020 Oct. 20.88457 TT                                 MPCW
q   3.3808585            (2000.0)            P               Q
n   0.06112678     Peri.  194.04882     +0.30501114     +0.89476015
a   6.3823661      Node    94.51305     -0.83912871     +0.41445189
e   0.4702813      Incl.   19.09663     -0.45036786     -0.16623447
P  16.12
>From 146 observations 2003 May 30-2019 Mar. 18, mean residual 0".6.

    P/2005 Y2 (McNaught)
Epoch 2036 July 6.0 TT = JDT 2464880.5
T 2036 June 23.24802 TT                                 MPCW
q   3.3478854            (2000.0)            P               Q
n   0.06307307     Peri.  193.36457     +0.28149685     +0.90172613
a   6.2503845      Node    93.75228     -0.84738335     +0.39403566
e   0.4643713      Incl.   19.19624     -0.45022325     -0.17783666
P  15.63
>From 146 observations 2003 May 30-2019 Mar. 18, mean residual 0".6.

    P/2005 Y2 (McNaught)
Epoch 2019 Apr. 27.0 TT = JDT 2458600.5
T 2020 Oct. 22.35610 TT                                 MPCW
q   3.3794479            (2000.0)            P               Q
n   0.06168543     Peri.  194.28934     +0.30881280     +0.89337742
a   6.3437732      Node    94.51709     -0.83734178     +0.41810624
e   0.4672811      Incl.   19.10969     -0.45110243     -0.16451128
P  15.98
>From 146 observations 2003 May 30-2019 Mar. 18, mean residual 0".6.

Ephemeris:
    P/2005 Y2 (McNaught)
Date    TT    R. A. (2000) Decl.     Delta      r     Elong.  Phase   m1
2019 02 16    14 25 30.4 +07 15 58   4.4464  4.9250   113.6    10.6  22.2
...
2019 03 03    14 25 53.7 +08 06 31   4.2062  4.8709   127.3     9.3  22.0
...
2019 03 11    14 24 51.1 +08 37 11   4.0934  4.8421   134.5     8.4  21.9
...
2019 03 17    14 23 30.7 +09 00 55   4.0173  4.8204   139.8     7.6  21.9
2019 03 18    14 23 14.7 +09 04 53   4.0054  4.8168   140.7     7.5  21.8
2019 03 19    14 22 57.9 +09 08 51   3.9937  4.8132   141.6     7.4  21.8
...
2019 03 25    14 21 02.0 +09 32 24   3.9287  4.7916   146.5     6.6  21.8
...
2019 04 02    14 17 50.5 +10 02 21   3.8559  4.7628   152.2     5.6  21.7
...
2019 04 17    14 10 25.5 +10 48 43   3.7661  4.7090   157.5     4.7  21.6

(CBET 4613、MPEC 2019-F27)

フラット表示 前のトピック | 次のトピック

題名 投稿者 日時
 » Comet P/2005 Y2 = 2019 E2 (McNaught) 佐藤裕久 2019-3-21 19:05

投稿するにはまず登録を
 
© 1999 Tsutomu Seki.